Regional Weather Roundup
Issued by NWS Cleveland, OH

Home | Current Version | Previous Version | Graphics & Text | Print | Product List | Glossary On
Versions: 1 2 3 4 5 6 7 8 9 10 11 12 13 14 15 16 17 18 19 20 21 22 23 24 25 26 27 28 29 30 31 32 33 34 35 36 37 38 39 40 41 42 43 44 45 46 47 48 49 50
000
ASUS41 KCLE 220710
RWRCLE
OHIO REGIONAL WEATHER ROUNDUP
NATIONAL WEATHER SERVICE WILMINGTON, OH
200 AM EST SAT NOV 22 2014

NOTE: "FAIR" INDICATES FEW OR NO CLOUDS BELOW 12,000 FEET WITH NO
SIGNIFICANT WEATHER AND/OR OBSTRUCTIONS TO VISIBILITY.

OHZ001>008-015>018-024>027-034-035-043-044-220800-
   NORTHWEST OHIO

CITY           SKY/WX    TMP DP  RH WIND       PRES   REMARKS
DEFIANCE       MOCLDY    24  14  65 S7        30.29F WCI  16
FINDLAY        MOCLDY    21  11  65 SE9       30.29F WCI  11
TOLEDO EXPRESS MOCLDY    19  10  68 S3        30.28F
TOLEDO METCALF PTCLDY    19  10  68 S8        30.30F WCI   9
LIMA           CLOUDY    26  13  57 S15       30.28F WCI  14
$$

OHZ009>014-019>023-028>033-038-089-220800-
   NORTHEAST OHIO

CITY           SKY/WX    TMP DP  RH WIND       PRES   REMARKS
CLE-HOPKINS    PTCLDY    24   9  52 S13       30.37F WCI  12
CLE-LAKEFRONT  PTCLDY    23   9  55 S15G21    30.34F WCI  10
CUY CO. ARPT   NOT AVBL
LORAIN-ELYRIA  PTCLDY    19   9  65 S13       30.34F WCI   6
ASHTABULA      PTCLDY    16   7  67 S10       30.38F WCI   4
AKRON-CANTON   PTCLDY    18   8  65 S8        30.36F WCI   8
WOOSTER        CLEAR    N/A N/A N/A S3        30.36F
MANSFIELD      PTCLDY    23   9  55 S14       30.31F WCI  11
YOUNGSTOWN     PTCLDY    19   8  62 S8        30.37F WCI   9
$$

OHZ042-051>053-060>062-070>072-077>081-220800-
  SOUTHWEST OHIO

CITY           SKY/WX    TMP DP  RH WIND       PRES   REMARKS
CINC-COVINGTON CLOUDY    33  14  45 S8        30.33F WCI  26
CINC-LUNKEN    CLOUDY    23  18  81 W5        30.37F WCI  17
HAMILTON       MOCLDY    26  16  65 CALM      30.36S
DAYTON         MOCLDY    26  15  63 S6        30.33F WCI  19
WRIGHT-PAT AFB CLOUDY    24  11  59 S2        30.33F
DAYTON GENERAL CLOUDY    30  15  53 S9        30.32F WCI  22
WILMINGTON     CLEAR     25  10  53 SE8       30.32F WCI  16
$$

OHZ036-037-039>041-045>050-054>059-063>069-073>076-082>088-220800-
  CENTRAL AND SOUTHEAST OHIO

CITY           SKY/WX    TMP DP  RH WIND       PRES   REMARKS
COLUMBUS       PTCLDY    23   8  52 S5        30.37F WCI  17
OSU AIRPORT    PTCLDY    22  10  60 S7        30.36F WCI  13
BOLTON FIELD   PTCLDY    18  10  70 S5        30.37F WCI  11
RICKENBACK AFB PTCLDY    17  10  72 CALM      30.38S
NEWARK         PTCLDY    10   6  84 CALM      30.38F
MARION         PTCLDY    20   9  62 S8        30.34F WCI  10
LANCASTER      PTCLDY    17  10  74 S3        30.38F
ZANESVILLE     PTCLDY    16   8  71 CALM      30.39F
NEW PHILLY     PTCLDY    17  11  77 S6        30.41F WCI   9
$$



USA.gov is the U.S. government's official web portal to all federal, state and local government web resources and services.